Weather reports worldwide

Advertisment
Kirkenes, Norway (1089): temperature & dewpoint: 16.08.2019 20:00:00 - 22.08.2019 20:00:00 (CEST)Kirkenes, Norway (1089): wind speed & gusts: 16.08.2019 20:00:00 - 22.08.2019 20:00:00 (CEST)Kirkenes, Norway (1089): wind direction: 16.08.2019 20:00:00 - 22.08.2019 20:00:00 (CEST)Kirkenes, Norway (1089): reduced air pressure: 16.08.2019 20:00:00 - 22.08.2019 20:00:00 (CEST)Kirkenes, Norway (1089): visibility: 16.08.2019 20:00:00 - 22.08.2019 20:00:00 (CEST)
Date & Time tt [°C] td [°C] ff [km/h] ff [kn] fx [km/h] fx [kn] dd ppp [hPa] vv [km]
22.08.2019 20:00:00 11,9 7,2 16 9 - - NW 1015,2 10
22.08.2019 19:00:00 12,8 8,5 13 7 26 14 NW 1014,7 10
22.08.2019 18:00:00 13,5 9,0 5 3 16 9 N 1014,3 10
22.08.2019 17:00:00 14,0 9,2 11 6 20 11 NNW 1014,1 10
22.08.2019 16:00:00 14,2 9,6 11 6 20 11 NNW 1013,9 10
22.08.2019 15:00:00 14,9 10,5 13 7 19 10 NNW 1013,8 10
22.08.2019 14:00:00 14,3 10,3 8 4 - - N 1013,6 10
22.08.2019 13:00:00 13,6 10,6 8 4 16 9 NNW 1013,5 10
22.08.2019 12:00:00 12,3 10,4 9 5 20 11 NW 1013,7 10
22.08.2019 11:00:00 11,2 10,7 9 5 17 9 W 1013,6 6
22.08.2019 10:00:00 10,5 10,2 5 3 11 6 - 1013,4 6
22.08.2019 09:00:00 10,2 9,9 0 0 9 5 N 1013,1 0,1
22.08.2019 08:00:00 9,8 9,7 2 1 - - - 1013,1 0,3
22.08.2019 07:00:00 14,8 14,8 4 2 8 4 - 1012,6 -
22.08.2019 06:00:00 14,7 14,7 0 0 6 3 N 1012,6 -
22.08.2019 05:00:00 14,8 14,8 5 3 7 4 S 1012,6 -
22.08.2019 04:00:00 14,9 14,9 5 3 9 5 SSE 1012,6 -
22.08.2019 03:00:00 14,7 14,7 5 3 8 4 - 1012,9 -
22.08.2019 02:00:00 15,0 15,0 0 0 - - N 1012,9 -
22.08.2019 01:00:00 15,2 15,2 2 1 7 4 - 1012,9 0,2
22.08.2019 00:00:00 15,5 15,5 4 2 6 3 NW 1013,1 0,1
21.08.2019 23:00:00 15,8 15,8 4 2 6 3 - 1013,1 0,3
21.08.2019 22:00:00 15,8 15,8 5 3 10 5 - 1013,4 0,2
21.08.2019 21:00:00 16,7 16,7 0 0 9 5 N 1013,1 5
21.08.2019 20:00:00 17,1 17,1 16 9 - - NE 1013,4 10
21.08.2019 19:00:00 11,0 9,9 8 4 15 8 NW 1013,8 10
21.08.2019 18:00:00 12,1 10,0 11 6 17 9 NNE 1013,4 10
21.08.2019 17:00:00 12,7 10,1 11 6 16 8 NNE 1013,5 10
21.08.2019 16:00:00 13,8 10,4 11 6 15 8 N 1013,4 10
21.08.2019 15:00:00 14,4 10,6 11 6 16 9 N 1013,6 10
21.08.2019 14:00:00 13,8 10,8 8 4 - - N 1013,6 10
21.08.2019 13:00:00 13,3 10,8 9 5 13 7 NW 1013,8 10
21.08.2019 12:00:00 12,6 10,8 5 3 10 6 WNW 1013,5 10
21.08.2019 11:00:00 12,4 10,8 4 2 12 6 - 1013,4 10
21.08.2019 10:00:00 12,5 11,4 4 2 10 5 - 1013,3 10
21.08.2019 09:00:00 11,0 10,2 5 3 12 7 - 1013,2 10
21.08.2019 08:00:00 11,8 10,7 5 3 - - - 1012,9 10
21.08.2019 07:00:00 11,2 10,3 8 4 13 7 SSE 1012,6 10
21.08.2019 06:00:00 10,7 10,1 9 5 16 9 SSE 1012,3 10
21.08.2019 05:00:00 10,4 9,8 11 6 16 9 SSE 1011,9 10
21.08.2019 04:00:00 10,3 9,7 11 6 16 9 SSE 1011,6 10
21.08.2019 03:00:00 10,8 10,2 11 6 21 11 S 1011,2 10
21.08.2019 02:00:00 11,4 10,3 11 6 - - SSE 1010,6 10
21.08.2019 01:00:00 11,9 10,5 11 6 18 10 S 1010,2 10
21.08.2019 00:00:00 12,5 10,6 13 7 18 10 SSE 1009,9 10
20.08.2019 23:00:00 13,6 10,8 13 7 19 11 S 1009,6 10
20.08.2019 22:00:00 13,4 10,8 13 7 16 9 SSE 1009,5 -
20.08.2019 21:00:00 12,9 10,8 5 3 13 7 - 1009,3 10
20.08.2019 20:00:00 14,4 10,4 8 4 - - SE 1008,8 10
20.08.2019 19:00:00 14,7 10,1 11 6 18 10 N 1008,4 10
20.08.2019 18:00:00 16,1 10,6 5 3 26 14 NE 1007,5 10
20.08.2019 17:00:00 19,6 9,8 21 11 34 18 SSW 1006,5 10
20.08.2019 16:00:00 19,7 10,4 22 12 33 18 SW 1005,9 10
20.08.2019 15:00:00 19,4 9,9 22 12 35 19 SW 1005,5 10
20.08.2019 14:00:00 19,7 10,1 22 12 - - SW 1005,2 10
20.08.2019 13:00:00 19,1 10,4 21 11 38 21 SW 1004,6 10
20.08.2019 12:00:00 16,1 11,5 26 14 42 23 SW 1004,4 10
20.08.2019 11:00:00 16,3 10,8 34 18 51 28 SSW 1003,8 10
20.08.2019 10:00:00 17,0 10,4 31 17 45 25 SSW 1003,2 10
20.08.2019 09:00:00 16,4 11,4 24 13 44 24 S 1002,9 10
20.08.2019 08:00:00 15,5 11,1 28 15 - - S 1002,3 10
20.08.2019 07:00:00 14,9 10,5 26 14 45 24 S 1001,9 10
20.08.2019 06:00:00 14,3 10,7 24 13 41 22 S 1001,7 10
20.08.2019 05:00:00 14,1 10,7 22 12 41 22 S 1001,9 10
20.08.2019 04:00:00 14,0 11,0 22 12 44 24 S 1001,7 10
20.08.2019 03:00:00 14,4 11,9 22 12 40 21 S 1001,7 10
20.08.2019 02:00:00 14,6 12,1 18 10 - - S 1001,7 10
20.08.2019 01:00:00 14,4 11,9 21 11 39 21 S 1001,5 10
20.08.2019 00:00:00 15,2 11,8 16 9 34 18 S 1001,8 10
19.08.2019 23:00:00 14,6 12,1 15 8 27 14 S 1002,4 10
19.08.2019 22:00:00 14,8 12,3 24 13 34 18 SSE 1002,9 10
19.08.2019 21:00:00 15,0 13,0 11 6 30 16 S 1003,4 5
19.08.2019 20:00:00 15,0 12,9 13 7 - - S 1004,0 10
19.08.2019 19:00:00 16,8 11,5 22 12 37 20 SSE 1004,3 10
19.08.2019 18:00:00 18,8 10,1 24 13 51 28 SSE 1004,0 10
19.08.2019 17:00:00 19,4 9,6 21 11 45 24 SSE 1004,4 10
19.08.2019 16:00:00 19,9 8,9 18 10 39 21 S 1004,9 10
19.08.2019 15:00:00 20,7 9,0 18 10 40 22 S 1005,4 10
19.08.2019 14:00:00 20,0 9,0 26 14 - - S 1006,1 10
19.08.2019 13:00:00 20,5 8,8 28 15 44 24 S 1006,6 10
19.08.2019 12:00:00 20,1 9,1 29 16 45 24 S 1007,0 10
19.08.2019 11:00:00 19,6 9,2 24 13 51 28 S 1007,6 10
19.08.2019 10:00:00 18,0 8,8 22 12 44 24 S 1008,2 10
19.08.2019 09:00:00 17,2 9,9 22 12 35 19 S 1008,7 10
19.08.2019 08:00:00 15,9 9,8 22 12 - - SSE 1009,0 10
19.08.2019 07:00:00 14,5 10,1 22 12 37 20 SSE 1009,4 10
19.08.2019 06:00:00 13,4 10,9 21 11 35 19 S 1009,6 10
19.08.2019 05:00:00 13,2 11,3 24 13 37 20 S 1009,4 10
19.08.2019 04:00:00 13,6 11,7 18 10 37 20 SSE 1009,4 10
19.08.2019 03:00:00 13,1 11,7 16 9 31 17 SSE 1009,7 10
19.08.2019 02:00:00 13,7 11,9 16 9 - - S 1009,7 10
19.08.2019 01:00:00 14,6 12,5 21 11 33 18 S 1009,7 10
19.08.2019 00:00:00 15,4 12,5 18 10 33 18 SSE 1009,5 10
18.08.2019 23:00:00 16,0 12,0 18 10 34 18 SSE 1009,3 10
18.08.2019 22:00:00 15,9 11,7 18 10 37 20 S 1009,3 10
18.08.2019 21:00:00 17,4 11,9 24 13 39 21 S 1009,0 10
18.08.2019 20:00:00 18,1 12,1 29 16 - - SSW 1008,7 10
18.08.2019 19:00:00 19,1 10,7 28 15 38 21 S 1008,4 10
18.08.2019 18:00:00 20,0 10,4 21 11 39 21 S 1007,9 10
18.08.2019 17:00:00 20,0 10,4 28 15 51 28 SSW 1007,9 10
18.08.2019 16:00:00 21,0 10,8 28 15 47 25 SSW 1007,8 10
18.08.2019 15:00:00 20,4 10,2 31 17 51 27 S 1007,7 10
18.08.2019 14:00:00 20,3 10,4 39 21 - - SSW 1007,5 10
18.08.2019 13:00:00 19,4 10,9 28 15 55 30 S 1007,5 10
18.08.2019 12:00:00 19,3 10,6 34 18 48 26 SSW 1007,2 10
18.08.2019 11:00:00 18,2 11,5 34 18 53 29 SSW 1007,0 10
18.08.2019 10:00:00 17,6 12,5 29 16 43 23 S 1007,4 10
18.08.2019 09:00:00 16,5 13,0 18 10 38 21 S 1007,3 10
18.08.2019 08:00:00 14,7 13,7 18 10 - - S 1007,6 10
18.08.2019 07:00:00 13,5 12,7 16 9 30 16 SSE 1007,6 10
18.08.2019 06:00:00 12,8 12,5 18 10 30 16 SSE 1007,8 10
18.08.2019 05:00:00 10,5 10,2 11 6 14 8 SSE 1008,3 0,4
18.08.2019 04:00:00 9,6 9,3 4 2 13 7 - 1008,7 0,4
18.08.2019 03:00:00 9,4 9,0 4 2 4 2 S 1009,2 0,2
18.08.2019 02:00:00 9,3 8,9 0 0 - - N 1009,4 0,7
18.08.2019 01:00:00 9,6 9,2 4 2 9 5 - 1009,5 5
18.08.2019 00:00:00 9,6 9,2 5 3 7 4 NW 1009,4 1,1
17.08.2019 23:00:00 9,8 9,2 5 3 8 4 W 1009,3 7
17.08.2019 22:00:00 10,9 9,3 5 3 6 3 E 1009,2 10
17.08.2019 21:00:00 10,8 9,2 0 0 6 3 N 1009,4 10
17.08.2019 20:00:00 11,3 8,9 5 3 - - - 1009,5 10
17.08.2019 19:00:00 13,4 8,7 11 6 14 7 E 1009,2 10
17.08.2019 18:00:00 14,6 10,6 8 4 16 8 E 1009,1 10
17.08.2019 17:00:00 13,7 9,4 11 6 16 9 E 1008,9 10
17.08.2019 16:00:00 14,5 11,3 8 4 12 7 WSW 1008,7 10
17.08.2019 15:00:00 14,2 11,4 13 7 18 10 SW 1008,6 10
17.08.2019 14:00:00 13,1 10,8 26 14 - - SW 1008,4 10
17.08.2019 13:00:00 15,7 11,5 26 14 40 22 SSW 1007,5 10
17.08.2019 12:00:00 14,3 12,2 24 13 48 26 S 1007,1 10
17.08.2019 11:00:00 12,2 10,6 26 14 40 22 S 1007,0 10
17.08.2019 10:00:00 12,5 10,0 22 12 40 22 S 1006,7 10
17.08.2019 09:00:00 12,0 10,2 18 10 34 18 S 1006,7 10
17.08.2019 08:00:00 11,4 10,2 21 11 - - S 1006,6 10
17.08.2019 07:00:00 10,4 9,5 22 12 32 17 SSE 1006,5 10
17.08.2019 06:00:00 10,3 8,9 22 12 29 16 S 1006,9 10
17.08.2019 05:00:00 9,6 8,7 18 10 21 11 SSE 1007,3 10
17.08.2019 04:00:00 8,7 8,1 18 10 30 16 S 1007,7 10
17.08.2019 03:00:00 8,4 8,0 18 10 27 15 S 1007,8 10
17.08.2019 02:00:00 8,5 7,7 16 9 - - SSE 1008,3 10
17.08.2019 01:00:00 9,3 8,1 18 10 34 18 S 1008,5 10
17.08.2019 00:00:00 10,3 8,6 22 12 - - S 1008,2 10
16.08.2019 23:00:00 10,9 8,7 22 12 41 22 SSE 1008,4 10
16.08.2019 22:00:00 11,2 8,6 21 11 38 21 SSE 1008,7 10
16.08.2019 21:00:00 11,7 8,4 21 11 34 18 SSE 1008,7 10
16.08.2019 20:00:00 12,3 7,8 22 12 - - S 1008,7 10

tt = temperature
td = dewpoint
ff = wind speed
fx = gusts
dd = wind direction
ppp = reduced air pressure
vv = visibility

Next stations